Regional Weather Roundup
Issued by NWS

Home | Current Version | Previous Version | Graphics & Text | Print | Product List | Glossary On
Versions: 1 2 3 4 5 6 7 8 9 10 11 12 13 14 15 16 17 18 19 20 21 22 23 24 25 26 27 28 29 30 31 32 33 34 35 36 37 38 39 40 41 42 43 44 45 46 47 48 49 50
000
ASUS43 KLOT 071300
RWRIL

ILLINOIS REGIONAL WEATHER ROUNDUP
NATIONAL WEATHER SERVICE CHICAGO/ROMEOVILLE IL
800 AM CDT TUE JUL 07 2015

NOTE: "FAIR" INDICATES FEW OR NO CLOUDS BELOW 12,000 FEET WITH NO
SIGNIFICANT WEATHER AND/OR OBSTRUCTIONS TO VISIBILITY.

* THESE STATIONS ARE NOT UNDER NWS QUALITY CONTROL. THEY ALSO MAY NOT
  REPORT WEATHER SUCH AS PRECIPITATION OR FOG.

ILZ001-002-007-009-015-016-024-071400-
NORTHWEST ILLINOIS

CITY           SKY/WX    TMP DP  RH WIND       PRES   REMARKS
MOLINE         CLOUDY    63  57  81 N7        29.99R HAZE
STERLING*      CLOUDY    63  59  88 N10G17    29.98R
$$

ILZ003-004-008-010-011-017-018-071400-
NORTH CENTRAL ILLINOIS

CITY           SKY/WX    TMP DP  RH WIND       PRES   REMARKS
ROCKFORD       CLOUDY    64  57  78 NE13      29.99R HAZE
$$

ILZ005-006-012>014-019>023-071400-
NORTHEAST ILLINOIS

CITY           SKY/WX    TMP DP  RH WIND       PRES   REMARKS
CHICAGO-OHARE  CLOUDY    58  55  90 N15       29.96R FOG
CHICAGO-MIDWAY LGT RAIN  59  54  83 N15       29.96R FOG
AURORA         CLOUDY    62  58  86 NE12      29.96R FOG
LANSING*       CLOUDY    58  55  89 N17G23    29.96R FOG
WAUKEGAN       CLOUDY    57  51  80 N12G24    29.96R
DUPAGE AIRPORT CLOUDY    60  56  86 N15       29.96R FOG
WHEELING       CLOUDY    59  54  83 N12G18    29.97R
NORTHERLY ISL    N/A     57  54  89 N22         N/A
$$

LMZ740>746-071400-
SOUTHERN LAKE MICHIGAN

STATION/POSITION SKY/WX   TEMP    WIND        PRES    VSBY  WAVE
                          AIR SEA DIR/SP/G                  HT/PER
                          (F)     (DEG/KT/KT) (MB)    (MI)  (FT/S)
HARRISON CRIB              58     350/ 26/ 31   N/A
BURNHAM HARBOR             58     340/ 21/ 27   N/A
CALUMET HARBOR             59     340/ 18/ 24   N/A
BURNS HARBOR               61     360/ 17/ 21 1013.5R
MICHIGAN CITY              60     350/ 19/ 21   N/A
MICHIGAN CITY 6N           61 67   10/ 19/ 23   N/A           3/ 3
ST. JOSEPH                 61 65   30/ 16/ 17   N/A           3/ 2
$$

ILZ025>027-034>036-040-047-049-050-058-095>099-071400-
WEST-CENTRAL ILLINOIS

CITY           SKY/WX    TMP DP  RH WIND       PRES   REMARKS
QUINCY         CLOUDY    63  61  93 N12       29.97R FOG
MACOMB*        LGT RAIN  62  61  96 N15       29.97S
$$

ILZ028>032-037-038-041>044-048-051>054-059>061-071400-
CENTRAL ILLINOIS

CITY           SKY/WX    TMP DP  RH WIND       PRES   REMARKS
DECATUR        LGT RAIN  72  70  93 S3        29.89R
PEORIA         LGT RAIN  65  61  87 N7        29.93R FOG
SPRINGFIELD    LGT RAIN  70  67  90 NW13G22   29.91R FOG
TAYLORVILLE    NOT AVBL
$$

ILZ033-039-045-046-055>057-062-063-071400-
EAST-CENTRAL ILLINOIS

CITY           SKY/WX    TMP DP  RH WIND       PRES   REMARKS
CHAMPAIGN      LGT RAIN  73  71  93 CALM      29.89F
MATTOON        HVY RAIN  72  71  97 NW8       29.90R VSB 3/4
$$

ILZ079-100>102-071400-
SOUTHWEST ILLINOIS

CITY           SKY/WX    TMP DP  RH WIND       PRES   REMARKS
ALTON          LGT RAIN  73 N/A N/A SW7       29.92R
BELLEVILLE     DRIZZLE   75  74  94 SW7       29.91R
CAHOKIA*       LGT RAIN  75  70  84 SW5       29.92R
SPARTA*        DRIZZLE   74  72  93 SW6       29.95R
$$

ILZ064>066-069>071-074>076-080>082-084>086-088>090-092>094-071400-
SOUTH-CENTRAL ILLINOIS

CITY           SKY/WX    TMP DP  RH WIND       PRES   REMARKS
CARBONDALE     CLOUDY    78  73  84 NW15      29.95R HX  81
MARION         LGT RAIN  79  75  89 SW12      29.96R HX  82
MT. VERNON     CLOUDY    77  70  78 SW9       29.93S
SALEM*         CLOUDY    78  73  83 SW8       29.92S HX  80
$$

ILZ067-068-072-073-078-083-087-091-071400-
SOUTHEAST ILLINOIS

CITY           SKY/WX    TMP DP  RH WIND       PRES   REMARKS
LAWRENCEVILLE  CLOUDY    77  73  87 SW14      29.92F
HARRISBURG*    PTSUNNY   76  76 100 SW8       29.96S FOG
CARMI*         LGT RAIN  74  69  83 W3        29.94S
$$

ABBREVIATIONS USED IN REMARKS
   TC - TEMPERATURE IN CELSIUS
  WCI - WIND CHILL INDEX
   HX - HEAT INDEX
  VSB - VISIBILITY
$$



USA.gov is the U.S. government's official web portal to all federal, state and local government web resources and services.